www.pogodaiklimat.ru

Погода и климат >> Архив погоды >> Индия >> Карнатака >> Гулбарга


ПОГОДА в Гулбарге

  • Прогноз погоды в Гулбарге
  • Монитор погоды в Гулбарге

АРХИВ ПОГОДЫ в Гулбарге

Время (UTC), дата Ветер
(напр.,м/с)
 
Видим.   Явления Облачность Т
(С)
Тd
(С)
f
(%)
Тe
(С)
Тes
(С)
Комфортность P
(гПа)
Po
(гПа)
Тmin
(С)
Tmax
(С)
R
(мм)
R24
(мм)
S
(см)
18 11.08 З 1 4000 м 6/3 300 м
[Sc Ac As]
+26.2 +21.6 76 +34 +34 очень
душно
1005.6 955.0
21 11.08 З 1 4000 м 10/4 300 м
[Sc Ac As]
+24.6 +21.4 82 +31 +31 очень
душно
1004.6 953.8
00 12.08 З 1 4000 м мгла 8/5 300 м
[Sc Ci sp]
+23.2 +21.4 90 +31 +31 очень
душно
1004.7 953.7
03 12.08 З 3 4000 м мгла 4/4 300 м
[St]
+25.0 +21.8 82 +32 +36 очень
душно
1006.0 955.2 +23.2 +32.4
06 12.08 З 2 10 км 9/5 300 м
[St As op]
+30.0 +22.0 62 +39 +42 очень
душно
1004.8 954.9
09 12.08 З 2 10 км 8/5 600 м
[Sc diur, vesp Ac lent]
+32.2 +22.3 56 +41 +46 опасность
перегрева
1002.5 953.0
12 12.08 З 1 10 км 8/1 300 м
[Sc Cs]
+31.6 +21.2 54 +39 +41 очень
душно
1000.5 951.0 +32.8
15 12.08 З 1 10 км 9/0 2000 м
[Ac As]
+29.2 +21.4 63 +37 +37 очень
душно
1002.7 952.9
18 12.08 З 2 4000 м 8/4 300 м
[Sc Ac As]
+27.8 +21.4 68 +35 +35 очень
душно
1004.4 954.1
21 12.08 З 3 10 км 9/4 600 м
[Sc Ac As]
+25.4 +21.7 80 +33 +33 очень
душно
1003.0 952.5
00 13.08 З 3 10 км 4/4 600 м
[Sc]
+24.0 +21.7 87 +31 +31 очень
душно
1003.8 952.9
03 13.08 З 2 4000 м мгла 9/5 300 м
[St Ac As]
+25.6 +23.3 87 +34 +36 очень
душно
1005.7 955.0 +24.0 +32.8
06 13.08 З 2 10 км 10/5 600 м
[Sc diur, vesp Ac As]
+29.4 +22.3 66 +38 +42 очень
душно
1005.0 955.1
09 13.08 З 2 10 км 10/4 300 м
[Sc diur, vesp As op]
+31.4 +22.3 59 +41 +43 опасность
перегрева
1002.8 953.2
12 13.08 З 1 10 км 10/3 300 м
[Sc Ac As]
+30.8 +21.0 56 +38 +39 очень
душно
1001.4 951.7 +32.0
15 13.08 З 1 4000 м 8/1 300 м
[Sc Ac As Ci fib]
+29.0 +22.4 68 +38 +38 очень
душно
1003.2 953.3
18 13.08 З 1 4000 м 8/3 300 м
[Sc Ac As]
+27.2 +22.3 75 +36 +36 очень
душно
1004.9 954.6
21 13.08 штиль 0 4000 м 10/3 300 м
[Sc As op]
+26.0 +22.0 79 +34 +34 очень
душно
1004.4 953.9
00 14.08 штиль 0 4000 м мгла 8/1 300 м
[Sc Ac As]
+24.8 +21.9 84 +32 +32 очень
душно
1004.8 954.0
03 14.08 З 1 4000 м мгла 9/4 300 м
[Sc Ac lent Ci sp]
+26.0 +22.6 82 +34 +37 очень
душно
1006.5 955.8 +24.5 +32.0
06 14.08 З 2 10 км 8/5 300 м
[Cu Sc Ci sp]
+30.2 +22.5 63 +39 +49 очень
душно
1005.3 955.4
09 14.08 З 2 10 км 9/4 600 м
[Sc diur, vesp Ac As Ci fib]
+32.6 +22.7 56 +42 +49 опасность
перегрева
1002.8 953.3
12 14.08 З 2 10 км 9/3 600 м
[Sc diur, vesp Ac As Cs]
+32.8 +22.3 54 +42 +43 опасность
перегрева
1001.5 952.1 +33.5
15 14.08 З 3 4000 м слаб. дождь 10/5 300 м
[Frnb As op]
+24.0 +22.3 90 +31 +31 очень
душно
1003.4 952.5 6
18 14.08 ЮЗ 2 4000 м 10/4 300 м
[Frnb As op]
+24.4 +23.5 95 +33 +33 очень
душно
1007.4 956.5 30
21 14.08 З 1 4000 м 10/5 300 м
[St Ac As]
+24.2 +23.5 96 +33 +33 очень
душно
1005.4 954.6 30
00 15.08 ЮЗ 2 4000 м мгла 9/3 300 м
[Sc Ac As]
+23.6 +22.1 91 +30 +30 очень
душно
1006.9 955.8 30
03 15.08 З 1 4000 м мгла 8/1 300 м
[Sc Cs]
+25.2 +22.3 84 +33 +39 очень
душно
1007.6 956.9 +23.4 +33.5 31
06 15.08 З 2 10 км 9/5 300 м
[Sc diur, vesp Cs]
+29.6 +22.2 64 +38 +48 очень
душно
1006.8 956.8
09 15.08 З 2 10 км 9/5 300 м
[Cu Sc Ac As]
+32.8 +26.0 68 +49 +53 опасность
перегрева
1004.1 954.6
12 15.08 З 1 10 км 8/3 300 м
[Sc diur, vesp Ac trans Cs]
+31.6 +23.2 61 +42 +43 опасность
перегрева
1002.3 952.9 +32.5
15 15.08 З 1 4000 м 5/3 300 м
[Sc Ci sp]
+27.6 +21.2 68 +35 +35 очень
душно
1005.8 955.4
18 15.08 З 1 4000 м 8/3 300 м
[Sc Ac As]
+26.2 +22.2 79 +34 +34 очень
душно
1007.4 956.8
21 15.08 З 1 4000 м 6/3 300 м
[Sc Ac As]
+25.0 +22.1 84 +32 +32 очень
душно
1006.6 955.7
00 16.08 З 1 4000 м мгла ясно +23.6 +20.9 85 +30 +30 очень
душно
1006.7 955.6
03 16.08 З 2 4000 м мгла 4/4 300 м
[St]
+25.6 +22.4 83 +34 +38 очень
душно
1007.3 956.6 +23.3 +32.5
06 16.08 ЮЗ 2 10 км 8/6 300 м
[Cu Sc Ac lent]
+30.4 +22.4 62 +39 +45 очень
душно
1006.3 956.4
09 16.08 З 3 10 км 9/4 300 м
[Sc diur, vesp Ac trans]
+32.4 +21.5 53 +41 +45 опасность
перегрева
1003.6 954.1
12 16.08 З 3 10 км 3/3 300 м
[Cu Sc]
+33.0 +20.1 47 +39 +40 очень
душно
1001.6 952.2 +34.2
15 16.08 З 2 4000 м 6/4 300 м
[Sc Ac lent]
+29.6 +20.6 58 +36 +36 очень
душно
1004.2 954.3
18 16.08 З 3 4000 м 8/0
[Cs]
+27.6 +21.2 68 +35 +35 очень
душно
1006.0 955.6
21 16.08 З 2 4000 м 5/1 300 м
[Sc Ci sp]
+25.2 +21.4 79 +32 +32 очень
душно
1005.4 954.8
00 17.08 З 1 4000 м мгла 4/1 300 м
[Sc Ci sp]
+23.8 +20.8 83 +30 +30 очень
душно
1005.6 954.6
03 17.08 З 1 4000 м мгла 4/4 300 м
[St]
+25.4 +22.8 86 +34 +38 очень
душно
1006.8 956.1 +23.3 +34.2
06 17.08 З 3 10 км 6/5 300 м
[Sc diur, vesp Ci sp]
+30.6 +21.1 57 +38 +47 очень
душно
1006.1 956.2
09 17.08 З 3 10 км 6/6 300 м
[Cu Sc]
+33.0 +21.6 51 +41 +47 опасность
перегрева
1004.0 954.2
12 17.08 З 3 10 км 5/1 300 м
[Cu Sc Cs]
+32.4 +20.2 49 +39 +40 очень
душно
1002.3 952.9 +33.7
15 17.08 З 1 4000 м 6/1 300 м
[Sc Cs]
+29.8 +20.5 57 +37 +37 очень
душно
1004.5 954.6
18 17.08 З 2 4000 м 6/3 300 м
[Sc Ac As]
+28.6 +21.4 65 +36 +36 очень
душно
1006.1 955.9
21 17.08 З 2 4000 м 6/4 300 м
[Sc Ac As]
+26.2 +21.2 74 +33 +33 очень
душно
1005.8 955.2
00 18.08 З 2 4000 м мгла 5/3 300 м
[Sc Ci sp]
+25.0 +21.5 81 +32 +32 очень
душно
1006.5 955.6
03 18.08 З 2 4000 м мгла 9/4 300 м
[Sc Ac trans]
+25.8 +22.0 80 +33 +36 очень
душно
1008.4 957.5 +24.4 +33.7
06 18.08 З 3 10 км 9/1 300 м
[Sc diur, vesp Ac As Cs]
+30.6 +22.0 60 +39 +48 очень
душно
1007.2 957.2
09 18.08 З 2 10 км 9/4 300 м
[Cu Sc Ac As Cs]
+32.8 +20.7 49 +40 +46 очень
душно
1004.8 955.2
12 18.08 З 2 10 км 9/3 300 м
[Sc Ac As Cs]
+32.4 +21.5 53 +41 +41 опасность
перегрева
1003.3 953.8 +34.4
15 18.08 Ю 2 4000 м 8/3 300 м
[Sc Ac trans Ci sp]
+30.0 +21.6 61 +38 +38 очень
душно
1005.6 955.7

 

Местоположение метеостанции Гулбарга (Карнатака, Индия): широта 17.35 долгота 76.85 высота над уровнем моря 458 м.

В архиве по умолчанию представлена погода в Гулбарге за последнюю неделю. Архивные данные за месяц целиком и за предыдущие месяцы, начиная с января 2011 года, Вы можете получить, выбрав интересующий диапазон дат из раскрывающегося списка и нажав кнопку "Ввод!".


*Определитесь, кто Вы:
робот инопланетянин человек

Внимание! Время в таблицах - всемирное. Для получения местного времени необходимо прибавить поправку, которая равна 5.5 ч.

Смотрите также архив погоды в соседних городах и на ближайших метеорологических станциях:

Погода в Аджере (Махараштра, Индия) (85 км)
Погода в Бидаре (Карнатака, Индия) (96 км)
Погода в Солапуре (Махараштра, Индия) (107 км)
Погода в Османабаде (Махараштра, Индия) (126 км)
Погода в Биджапуре (Карнатака, Индия) (134 км)
Погода в Багалкоте (Карнатака, Индия) (138 км)
Погода в Райчуре (Карнатака, Индия) (139 км)
Погода в Махбубнагаре (Телингана, Индия) (139 км)
Погода в Медаке (Телингана, Индия) (169 км)
Погода в Хайдарабаде (Телингана, Индия) (172 км)

Пояснения к столбцам:

Ветер - указаны скорость ветра в м/с - средняя за 10 мин, порывы в срок и между сроками (в фигурных скобках) и направление, откуда дует ветер: С - северный, СВ - северо-восточный, В - восточный, ЮВ - юго-восточный, Ю - южный, ЮЗ - юго-западный, З - западный, СЗ - северо-западный.
Видимость - горизонтальная дальность видимости в метрах или километрах. При видимости от 1 до 10 км при отсутствии осадков обычно наблюдается дымка, при ухудшении видимости до 1 км и менее - туман. В сухую погоду видимость может ухудшаться дымом, пылью или мглою.
Явления - указаны атмосферные явления, наблюдавшиеся в срок или в последний час перед сроком; фигурными скобками обозначены явления, наблюдавшиеся между сроками (за 1-3 часа до срока); квадратными скобками обозначены град или гололедные отложения с указанием их диаметра в мм.
Облачность - указаны через наклонную черту общая и нижняя облачность в баллах и высота нижней границы облаков в метрах; квадратными скобками обозначены формы облаков: Ci - перистые, Cs - перисто-слоистые, Cc - перисто-кучевые, Ac - высококучевые, As - высокослоистые, Sc - слоисто-кучевые, Ns - слоисто-дождевые, Cu - кучевые, Cb - кучево-дождевые. Подробнее классификацию облаков см. в Атласе облаков (PDF).
T - Температура воздуха - температура, измеренная на высоте 2 м над землей.
Td - Температура точки росы - температура, при понижении до которой содержащийся в воздухе водяной пар достигнет насыщения.
f - Относительная влажность воздуха - влажноcть воздуха, измеренная на высоте 2 м над землей.
Te - Эффективная температура - температура, которую ощущает одетый по сезону человек в тени. Характеристика душности погоды. При расчете учитывается влияние влажности воздуха и скорости ветра на теплоощущения человека.
Tes - Эффективная температура на солнце - температура, которую ощущает человек, с поправкой на солнечный нагрев. Характеристика знойности погоды. Зависит от высоты солнца над горизонтом, облачности и скорости ветра. Ночью, в пасмурную погоду, а также при ветре 12 м/с и более поправка равна нулю.
P - Атмосферное давление - приведенное к уровню моря атмосферное давление.
Po - Атмосферное давление - измеренное на уровне метеостанции атмосферное давление.
Tmin - Минимальная температура - минимум температуры воздуха на высоте 2 м над землей.
Tmax - Максимальная температура - максимум температуры воздуха на высоте 2 м над землей.
R - Количество осадков - Количество выпавших осадков за период времени, мм. При наведении курсора мыши на число - период времени, за который выпало указанное количество осадков.
R24 - Количество осадков - Количество выпавших осадков за 24 часа, мм.
S - Снежный покров - Высота снежного покрова, см. При наведении курсора мыши на число - состояние снежного покрова и степень покрытия местности в баллах.